Home   Weather   Tianjin   Past weeks

Flag for China Past Weather in Tianjin, Tianjin Municipality, China — Yesterday and Last 2 Weeks

Now
73 °F

Haze.


Feels Like: 77 °F
Forecast: 58 / 82 °F
Wind: 8 mph from Southwest

Location: Tianjin / Zhangguizhu

Current Time: Oct 1, 2016 at 11:21:22 AM

Latest Report: Oct 1, 2016 at 11:00 AM


Visibility: 2 mi

Pressure: 29.98 "Hg

Humidity: 38%

Dew Point: 46 °F

Location of TianjinLocation

Past Weather in Tianjin — Graph

°F

Tianjin Temperature Yesterday

Maximum temperature yesterday: 77 °F (at 2:00 PM)
Minimum temperature yesterday: 61 °F (at 3:30 AM)
Average temperature yesterday: 67 °F

High & Low Weather Summary for the Past Weeks

 TemperatureHumidityPressure
High86 °F (Sep 16, 12:00 PM)94% (Sep 16, 9:30 PM)30.36 "Hg (Sep 16, 9:30 PM)
Low50 °F (Sep 29, 5:30 AM)23% (Sep 20, 12:30 PM)29.77 "Hg (Sep 24, 2:30 PM)
Average69 °F59%30.03 "Hg
* Reported Sep 16 10:00 AM — Oct 1 10:00 AM, Tianjin, Weather by CustomWeather, © 2016

Note: Actual official high and low records may vary slightly from our data, if they occured in-between our weather recording intervals... More about our weather records

Advertising

Tianjin Weather History for the Previous 24 Hours

Scroll right to see more
 ConditionsComfort  
Time TempWeatherWind HumidityBarometerVisibility
10:00 AM
Sat, Oct 1
72 °FHaze.6 mph41%30.01 "Hg2 mi
9:30 AM70 °FHaze.6 mph46%29.98 "Hg2 mi
9:00 AM68 °FHaze.6 mph49%29.98 "Hg1 mi
8:30 AM66 °FHaze.6 mph52%29.98 "Hg1 mi
8:00 AM64 °FHaze.6 mph56%29.98 "Hg1 mi
7:30 AM61 °FHaze.3 mph63%29.98 "Hg1 mi
7:00 AM59 °FHaze.3 mph68%29.98 "Hg2 mi
6:30 AM59 °FHaze.3 mph68%29.98 "Hg2 mi
6:00 AM57 °FFog.3 mph77%29.98 "Hg1 mi
5:30 AM55 °FFog.3 mph82%29.98 "Hg1 mi
5:00 AM57 °FHaze.3 mph72%29.98 "Hg2 mi
4:30 AM59 °FHaze.1 mph68%29.98 "Hg2 mi
4:00 AM59 °FHaze.1 mph68%29.98 "Hg2 mi
3:30 AM61 °FHaze.1 mph63%29.98 "Hg2 mi
3:00 AM63 °FHaze.3 mph56%29.98 "Hg2 mi
2:30 AM63 °FHaze.6 mph56%29.98 "Hg2 mi
2:00 AM63 °FHaze.3 mph56%29.98 "Hg2 mi
1:30 AM63 °FHaze.6 mph64%29.98 "Hg2 mi
1:00 AM64 °FHaze.6 mph56%29.98 "Hg2 mi
12:30 AM64 °FHaze.6 mph56%29.98 "Hg2 mi
12:00 AM64 °FHaze.8 mph60%29.98 "Hg3 mi
11:30 PM
Fri, Sep 30
64 °FHaze.6 mph60%29.98 "Hg3 mi
11:00 PM66 °FHaze.3 mph60%29.98 "Hg3 mi
10:30 PM64 °FClear.6 mph68%29.98 "Hg4 mi
10:00 PM64 °FClear.6 mph64%29.98 "Hg4 mi
9:30 PM64 °FClear.3 mph64%29.98 "Hg5 mi
9:00 PM64 °FClear.6 mph64%29.95 "Hg4 mi
8:30 PM64 °FHaze.6 mph68%29.95 "Hg3 mi
8:00 PM64 °FHaze.6 mph68%29.95 "Hg3 mi
7:30 PM64 °FClear.6 mph64%29.95 "Hg4 mi
7:00 PM64 °FClear.8 mph64%29.95 "Hg4 mi
6:30 PM66 °FClear.8 mph60%29.95 "Hg4 mi
6:00 PM68 °FClear.8 mph53%29.95 "Hg4 mi
5:30 PM72 °FClear.8 mph47%29.92 "Hg4 mi
5:00 PM75 °FClear.3 mph34%29.92 "Hg4 mi
4:30 PM75 °FClear.3 mph34%29.92 "Hg4 mi
4:00 PM77 °FClear.6 mph32%29.92 "Hg4 mi
3:30 PM77 °FClear.6 mph30%29.92 "Hg4 mi
3:00 PM77 °FClear.6 mph32%29.92 "Hg4 mi
2:30 PM77 °FClear.6 mph30%29.95 "Hg4 mi
2:00 PM77 °FClear.6 mph30%29.95 "Hg5 mi
1:30 PM75 °FClear.6 mph27%29.95 "Hg5 mi
1:00 PM75 °FClear.6 mph29%29.98 "Hg5 mi
12:30 PM75 °FClear.3 mph31%29.98 "Hg4 mi
12:00 PM73 °FClear.3 mph31%29.98 "Hg5 mi
11:30 AM73 °FClear.3 mph33%30.01 "Hg5 mi
11:00 AM73 °FClear.1 mph36%30.01 "Hg5 mi
Weather by CustomWeather, © 2016

See weather overviewHow to use our weather pages